Station UNLA2 - 9462620 - Unalaska, AK Image indicating link to RSS feed of recent meteorological observations for station UNLA2


Conditions at UNLA2 as of
(9:18 am AKDT)
1718 GMT on 05/26/2024:
     

Click on the graph icon in the table below to see a time series plot of the last five days of that observation.

5-day plot - Wind Direction Wind Direction (WDIR): NW ( 320 deg true )
5-day plot - Wind Speed Wind Speed (WSPD): 8.9 kts
5-day plot - Wind Gust Wind Gust (GST): 12.0 kts
5-day plot - Atmospheric Pressure Atmospheric Pressure (PRES):30.19 in
5-day plot - Water Temperature Water Temperature (WTMP): 41.0 °F
5-day plot - Wind Speed at 10 Meters Wind Speed at 10 meters (WSPD10M): 7.8 kts
5-day plot - Wind Speed at 20 Meters Wind Speed at 20 meters (WSPD20M): 9.7 kts
5-day plot -  Wind Speed, Wind Gust and Atmospheric Pressure Combined plot of Wind Speed, Gust, and Air Pressure
NOS Water Level Observation Network Water Level
Previous observations
TIME
(AKDT)
5-day plot - Wind Direction
WDIR
 
5-day plot - Wind Speed
WSPD
kts
5-day plot - Wind Gust
GST
kts
5-day plot - Wave Height
WVHT
ft
5-day plot - Dominant Wave Period
DPD
sec
5-day plot - Average Wave Period
APD
sec
5-day plot - Mean Wave Direction
MWD
 
5-day plot - Atmospheric Pressure
PRES
in
5-day plot - Pressure Tendency
PTDY
in
5-day plot - Air Temperature
ATMP
°F
5-day plot - Water Temperature
WTMP
°F
5-day plot - Dew Point
DEWP
°F
5-day plot - Salinity
SAL
psu
5-day plot - Visibility
VIS
nmi
5-day plot - Tide (above MLLW)
TIDE
ft
2024-05-26 09:12 amNNW 8.0 12.0----30.19-- 41.0----
2024-05-26 09:06 amNNW 12.0 15.0----30.19-- 41.0----
2024-05-26 09:00 amNNW 8.0 12.0----30.19-0.01- 41.0----
2024-05-26 08:54 amNNW 8.9 11.1----30.19-- 41.0----
2024-05-26 08:48 amNNW 7.0 9.9----30.19-- 41.0----
2024-05-26 08:42 amNNW 7.0 13.0----30.19-- 41.0----
2024-05-26 08:36 amWNW 8.9 13.0----30.18-- 41.0----
2024-05-26 08:30 am NW 13.0 17.1----30.18-- 41.0----
2024-05-26 08:24 amWNW 9.9 20.0----30.18-- 41.0----
2024-05-26 08:18 am NW 14.0 19.0----30.17-- 41.0----
2024-05-26 08:12 am NW 14.0 17.1----30.18-- 41.0----
2024-05-26 08:06 am NW 13.0 15.9----30.18-- 41.0----
2024-05-26 08:00 amWNW 8.9 20.0----30.18-0.02- 40.8----
2024-05-26 07:54 amWNW 8.9 17.1----30.18-- 40.8----
2024-05-26 07:48 amWNW 8.0 20.0----30.18-- 41.0----
2024-05-26 07:42 amWNW 8.9 15.0----30.18-- 40.8----
2024-05-26 07:36 amWNW 9.9 17.1----30.18-- 40.8----
2024-05-26 07:30 amWNW 7.0 12.0----30.19-- 40.8----
2024-05-26 07:24 amWNW 8.0 11.1----30.19-- 41.0----
2024-05-26 07:18 amWNW 9.9 13.0----30.19-- 41.0----
2024-05-26 07:12 amWNW 8.0 12.0----30.19-- 41.0----
2024-05-26 07:06 amWNW 5.1 11.1----30.20-- 41.0----
2024-05-26 07:00 amWNW 6.0 13.0----30.20-0.01- 41.0----
2024-05-26 06:54 amWNW 8.9 15.9----30.20-- 41.0----
2024-05-26 06:48 amWNW 8.9 14.0----30.20-- 41.0----
2024-05-26 06:42 amWNW 11.1 15.9----30.20-- 41.0----
2024-05-26 06:36 amWNW 7.0 12.0----30.20-- 41.0----
2024-05-26 06:30 amWNW 8.0 14.0----30.20-- 41.0----
2024-05-26 06:24 amWNW 6.0 12.0----30.20-- 41.0----
2024-05-26 06:18 amWNW 11.1 15.0----30.20-- 41.0----
2024-05-26 06:12 amWNW 8.0 12.0----30.20-- 41.0----
2024-05-26 06:06 amWNW 7.0 14.0----30.20-- 41.0----
2024-05-26 06:00 amWNW 7.0 13.0----30.20-0.01- 41.0----
2024-05-26 05:54 amWNW 6.0 15.0----30.20-- 41.0----
2024-05-26 05:48 amWNW 8.0 14.0----30.20-- 41.0----
2024-05-26 05:42 amWNW 11.1 15.9----30.20-- 41.0----
2024-05-26 05:36 am NW 9.9 13.0----30.20-- 41.0----
2024-05-26 05:30 am NW 11.1 14.0----30.20-- 40.8----
2024-05-26 05:24 am NW 11.1 15.0----30.20-- 41.0----
2024-05-26 05:18 am NW 9.9 15.0----30.20-- 41.0----
2024-05-26 05:12 amWNW 8.9 15.0----30.20-- 41.0----
2024-05-26 05:06 amWNW 8.9 14.0----30.20-- 41.0----
2024-05-26 05:00 amWNW 6.0 13.0----30.20-0.02- 40.8----
2024-05-26 04:54 am NW 8.9 15.0----30.20-- 40.8----
2024-05-26 04:48 amWNW 7.0 12.0----30.21-- 41.0----
2024-05-26 04:42 am NW 8.9 14.0----30.21-- 40.8----
2024-05-26 04:36 amWNW 7.0 15.0----30.21-- 40.8----
2024-05-26 04:30 amWNW 8.0 13.0----30.21-- 41.0----
2024-05-26 04:24 amWNW 8.0 12.0----30.21-- 41.0----
2024-05-26 04:18 am NW 8.9 13.0----30.21-- 41.0----
2024-05-26 04:12 amNNW 9.9 12.0----30.21-- 41.0----
2024-05-26 04:06 amNNW 7.0 12.0----30.21-- 41.0----
2024-05-26 04:00 am-------30.21-0.01------
2024-05-26 03:54 am-------30.22-------
2024-05-26 03:48 amNNW 8.9 14.0----30.22-- 41.0----
2024-05-26 03:42 amNNW 11.1 14.0----30.21-- 41.0----
2024-05-26 03:36 am NW 12.0 17.1----30.21-- 41.0----
2024-05-26 03:30 am NW 9.9 13.0----30.21-- 41.0----
2024-05-26 03:24 amNNW 12.0 15.0----30.21-- 41.0----
2024-05-26 03:18 am NW 11.1 17.1----30.21-- 41.0----
2024-05-26 03:12 am NW 13.0 17.1----30.21-- 41.0----
2024-05-26 03:06 am NW 12.0 17.1----30.21-- 41.0----
2024-05-26 03:00 am NW 12.0 17.1----30.21+0.00- 41.0----
2024-05-26 02:54 amWNW 9.9 15.9----30.22-- 41.0----
2024-05-26 02:48 am NW 11.1 17.1----30.22-- 41.0----
2024-05-26 02:42 amWNW 8.0 14.0----30.22-- 41.0----
2024-05-26 02:36 amWNW 8.9 17.1----30.22-- 41.0----
2024-05-26 02:30 amWNW 11.1 19.0----30.22-- 41.0----
2024-05-26 02:24 amWNW 8.0 13.0----30.22-- 41.0----
2024-05-26 02:18 am NW 9.9 14.0----30.22-- 41.0----
2024-05-26 02:12 amWNW 9.9 15.9----30.22-- 41.0----
2024-05-26 02:06 amWNW 8.9 15.9----30.22-- 41.0----
2024-05-26 02:00 amWNW 11.1 18.1----30.22+0.03- 41.0----
2024-05-26 01:54 amWNW 9.9 15.0----30.22-- 41.0----
2024-05-26 01:48 am W 12.0 17.1----30.22-- 41.0----
2024-05-26 01:42 amWNW 8.9 15.9----30.22-- 41.0----
2024-05-26 01:36 amWNW 11.1 15.0----30.22-- 41.0----
2024-05-26 01:30 amWNW 8.9 15.9----30.22-- 41.0----
2024-05-26 01:24 amWNW 9.9 17.1----30.22-- 41.0----
2024-05-26 01:18 amWNW 9.9 17.1----30.22-- 41.0----
2024-05-26 01:12 amWNW 12.0 17.1----30.22-- 41.0----
2024-05-26 01:06 amWNW 6.0 13.0----30.22-- 41.0----
2024-05-26 01:00 am W 11.1 14.0----30.22+0.04- 41.0----
2024-05-26 12:54 amWNW 8.0 12.0----30.22-- 41.0----
2024-05-26 12:48 amWNW 8.9 15.9----30.22-- 41.2----
2024-05-26 12:42 amWNW 11.1 15.0----30.22-- 41.2----
2024-05-26 12:36 amWNW 9.9 15.0----30.22-- 41.2----
2024-05-26 12:30 amWNW 12.0 18.1----30.22-- 41.2----
2024-05-26 12:24 amWNW 11.1 17.1----30.21-- 41.2----
2024-05-26 12:18 amWNW 11.1 17.1----30.22-- 41.2----
2024-05-26 12:12 amWNW 8.0 15.0----30.22-- 41.2----
2024-05-26 12:06 am W 12.0 15.9----30.21-- 41.2----
2024-05-26 12:00 amWNW 8.0 14.0----30.22+0.04- 41.2----
2024-05-25 11:54 pmWNW 8.0 15.0----30.21-- 41.2----
2024-05-25 11:48 pmWNW 8.9 15.9----30.21-- 41.2----
2024-05-25 11:42 pmWNW 7.0 14.0----30.21-- 41.2----
2024-05-25 11:36 pmWNW 9.9 17.1----30.20-- 41.2----
2024-05-25 11:30 pmWNW 9.9 19.0----30.20-- 41.2----
2024-05-25 11:24 pmWNW 11.1 17.1----30.20-- 41.2----
2024-05-25 11:18 pmWNW 8.0 15.0----30.20-- 41.2----
2024-05-25 11:12 pmWNW 11.1 19.0----30.20-- 41.2----
2024-05-25 11:06 pm NW 12.0 17.1----30.19-- 41.2----
2024-05-25 11:00 pmWNW 9.9 17.1----30.19+0.02- 41.2----
2024-05-25 10:54 pmWNW 9.9 22.0----30.19-- 41.4----
2024-05-25 10:48 pmWNW 8.9 22.0----30.19-- 41.4----
2024-05-25 10:42 pmWNW 9.9 18.1----30.19-- 41.4----
2024-05-25 10:36 pm NW 14.0 20.0----30.19-- 41.4----
2024-05-25 10:30 pmWNW 9.9 22.9----30.19-- 41.4----
2024-05-25 10:24 pmWNW 13.0 19.0----30.18-- 41.4----
2024-05-25 10:18 pmWNW 9.9 18.1----30.18-- 41.4----
2024-05-25 10:12 pm NW 15.0 21.0----30.18-- 41.4----
2024-05-25 10:06 pm NW 13.0 21.0----30.18-- 41.4----
2024-05-25 10:00 pm NW 13.0 20.0----30.18+0.02- 41.4----
2024-05-25 09:54 pmWNW 8.9 20.0----30.18-- 41.4----
2024-05-25 09:48 pm NW 15.9 20.0----30.18-- 41.4----
2024-05-25 09:42 pm NW 14.0 21.0----30.18-- 41.4----
2024-05-25 09:36 pmWNW 18.1 24.1----30.18-- 41.4----
2024-05-25 09:30 pmWNW 12.0 21.0----30.17-- 41.4----
2024-05-25 09:24 pm NW 19.0 25.1----30.17-- 41.4----
2024-05-25 09:18 pmWNW 13.0 21.0----30.17-- 41.4----
2024-05-25 09:12 pm NW 17.1 22.9----30.17-- 41.4----
2024-05-25 09:06 pmWNW 14.0 22.9----30.17-- 41.4----
2024-05-25 09:00 pmWNW 12.0 24.1----30.17+0.03- 41.4----
2024-05-25 08:54 pm NW 17.1 22.9----30.17-- 41.4----
2024-05-25 08:48 pmWNW 15.9 22.9----30.18-- 41.4----
2024-05-25 08:42 pmWNW 15.0 22.0----30.17-- 41.4----
2024-05-25 08:36 pmWNW 9.9 21.0----30.17-- 41.4----
2024-05-25 08:30 pm NW 14.0 25.1----30.17-- 41.4----
2024-05-25 08:24 pm NW 17.1 29.9----30.17-- 41.4----
2024-05-25 08:18 pmWNW 15.0 29.9----30.18-- 41.4----
2024-05-25 08:12 pm NW 19.0 22.0----30.17-- 41.2----
2024-05-25 08:06 pm NW 17.1 22.9----30.17-- 41.2----
2024-05-25 08:00 pmWNW 15.9 22.0----30.17+0.04- 41.2----
2024-05-25 07:54 pm NW 18.1 25.1----30.17-- 41.4----
2024-05-25 07:48 pmWNW 17.1 26.0----30.17-- 41.2----
2024-05-25 07:42 pm NW 17.1 22.9----30.16-- 41.2----
2024-05-25 07:36 pm NW 15.9 25.1----30.16-- 41.2----
2024-05-25 07:30 pm NW 18.1 24.1----30.16-- 41.2----
2024-05-25 07:24 pmWNW 13.0 22.0----30.16-- 41.4----
2024-05-25 07:18 pm NW 15.9 22.0----30.16-- 41.4----
2024-05-25 07:12 pmWNW 14.0 24.1----30.16-- 41.4----
2024-05-25 07:06 pmWNW 17.1 25.1----30.15-- 41.2----
2024-05-25 07:00 pmWNW 15.9 25.1----30.16+0.02- 41.2----
2024-05-25 06:54 pmWNW 14.0 21.0----30.16-- 41.2----
2024-05-25 06:48 pmWNW 12.0 21.0----30.16-- 41.2----
2024-05-25 06:42 pmWNW 15.9 22.9----30.16-- 41.4----
2024-05-25 06:36 pmWNW 13.0 22.0----30.15-- 41.2----
2024-05-25 06:30 pmWNW 15.0 25.1----30.15-- 41.2----
2024-05-25 06:24 pmWNW 14.0 24.1----30.15-- 41.2----
2024-05-25 06:18 pmWNW 12.0 27.0----30.14-- 41.2----
2024-05-25 06:12 pmWNW 17.1 31.1----30.15-- 41.4----
2024-05-25 06:06 pmWNW 18.1 26.0----30.14-- 41.4----
2024-05-25 06:00 pmWNW 11.1 25.1----30.14+0.01- 41.4----
2024-05-25 05:54 pmWNW 14.0 26.0----30.14-- 41.4----
2024-05-25 05:48 pmWNW 12.0 24.1----30.14-- 41.4----
2024-05-25 05:42 pmWNW 14.0 25.1----30.14-- 41.4----
2024-05-25 05:36 pmWNW 14.0 28.9----30.14-- 41.4----
2024-05-25 05:30 pmWNW 13.0 26.0----30.14-- 41.4----
2024-05-25 05:24 pmWNW 14.0 22.0----30.14-- 41.4----
2024-05-25 05:18 pmWNW 14.0 24.1----30.14-- 41.4----
2024-05-25 05:12 pmWNW 15.9 24.1----30.13-- 41.4----
2024-05-25 05:06 pmWNW 19.0 26.0----30.13-- 41.2----
2024-05-25 05:00 pmWNW 15.9 28.9----30.14-- 41.2----
2024-05-25 04:54 pmWNW 14.0 22.9----30.13-- 41.2----
2024-05-25 04:48 pmWNW 13.0 24.1----30.14-- 41.5----
2024-05-25 04:42 pmWNW 17.1 22.0----30.13-- 41.5----
2024-05-25 04:36 pmWNW 9.9 24.1----30.14-- 41.5----
2024-05-25 04:30 pmWNW 15.9 25.1----30.14-- 41.5----
2024-05-25 04:24 pmWNW 14.0 22.9----30.14-- 41.5----
2024-05-25 04:18 pmWNW 17.1 25.1----30.14-- 41.5----
2024-05-25 04:12 pmWNW 17.1 26.0----30.14-- 41.5----
2024-05-25 04:06 pmWNW 17.1 26.0----30.14-- 41.5----
2024-05-25 04:00 pmWNW 13.0 22.0----30.14+0.00- 41.5----
2024-05-25 03:54 pmWNW 8.0 15.9----30.14-- 41.5----
2024-05-25 03:48 pm-------30.14-- 41.5----
2024-05-25 03:42 pm-------30.14-- 41.5----
2024-05-25 03:36 pm-------30.14-- 41.5----
2024-05-25 03:30 pmWNW 12.0 22.0----30.14-- 41.4----
2024-05-25 03:24 pmWNW 15.9 25.1----30.14-- 41.4----
2024-05-25 03:00 pmWNW 18.1 24.1----30.13+0.01- 41.4----
2024-05-25 02:54 pm NW 15.9 22.0----30.13-- 41.4----
2024-05-25 02:48 pm NW 14.0 22.9----30.13-- 41.4----
2024-05-25 02:42 pmWNW 13.0 24.1----30.13-- 41.4----
2024-05-25 02:36 pm NW 15.0 24.1----30.13-- 41.4----
2024-05-25 02:30 pm NW 15.9 21.0----30.13-- 41.4----
2024-05-25 02:24 pm NW 17.1 21.0----30.13-- 41.4----
2024-05-25 02:18 pm NW 19.0 24.1----30.13-- 41.4----
2024-05-25 02:12 pm NW 17.1 22.0----30.12-- 41.4----
2024-05-25 02:06 pm NW 14.0 25.1----30.12-- 41.4----
2024-05-25 02:00 pm NW 17.1 22.0------- 41.4----
2024-05-25 01:54 pm NW 15.9 22.0------- 41.4----
2024-05-25 01:48 pm NW 15.9 20.0----30.12-- 41.4----
2024-05-25 01:42 pm NW 14.0 19.0----30.12-- 41.4----
2024-05-25 01:36 pm NW 15.9 21.0----30.13-- 41.4----
2024-05-25 01:30 pm NW 17.1 22.0----30.13-------
2024-05-25 01:24 pm NW 14.0 20.0----30.13-------
2024-05-25 01:18 pm NW 14.0 19.0----30.13-- 41.4----
2024-05-25 01:12 pm NW 17.1 21.0----30.13-- 41.4----
2024-05-25 01:06 pm NW 17.1 21.0----30.13-- 41.4----
2024-05-25 01:00 pm NW 14.0 19.0----30.13+0.02- 41.4----
2024-05-25 12:54 pm NW 15.9 20.0----30.13-- 41.4----
2024-05-25 12:48 pm NW 14.0 19.0----30.13-- 41.4----
2024-05-25 12:42 pmWNW 13.0 19.0----30.13-- 41.4----
2024-05-25 12:36 pmWNW 9.9 21.0----30.13-- 41.4----
2024-05-25 12:30 pm NW 13.0 19.0----30.13-- 41.4----
2024-05-25 12:24 pm NW 17.1 20.0----30.12-- 41.4----
2024-05-25 12:18 pmWNW 15.9 22.9----30.12-- 41.4----
2024-05-25 12:12 pmWNW 8.0 22.9----30.12-- 41.4----
2024-05-25 12:06 pmWNW 8.0 20.0----30.12-- 41.4----
2024-05-25 12:00 pm-------30.12+0.02- 41.4----
2024-05-25 11:54 am-------30.12-- 41.4----
2024-05-25 11:48 amWNW 15.0 25.1----30.12-- 41.4----
2024-05-25 11:42 amWNW 8.0 21.0----30.12-- 41.4----
2024-05-25 11:36 amWNW 12.0 19.0----30.12-- 41.4----
2024-05-25 11:30 amWNW 12.0 20.0----30.11-- 41.4----
2024-05-25 11:24 am NW 18.1 21.0----30.11-- 41.4----
2024-05-25 11:18 amWNW 12.0 19.0----30.11-- 41.4----
2024-05-25 11:12 amWNW 13.0 22.0----30.11-- 41.4----
2024-05-25 11:06 amWNW 12.0 25.1----30.11-- 41.4----
2024-05-25 11:00 amWNW 13.0 22.0----30.11+0.02- 41.4----
2024-05-25 10:54 am NW 18.1 21.0----30.11-- 41.2----
2024-05-25 10:48 am NW 15.0 19.0----30.11-- 41.4----
2024-05-25 10:42 amWNW 9.9 19.0----30.11-- 41.2----
2024-05-25 10:36 amWNW 13.0 22.0----30.11-- 41.2----
2024-05-25 10:30 am NW 12.0 21.0----30.11-- 41.2----
2024-05-25 10:24 am NW 17.1 22.9----30.11-- 41.2----
2024-05-25 10:18 amWNW 7.0 18.1----30.11-- 41.2----
2024-05-25 10:12 am NW 17.1 22.0----30.11-- 41.2----
2024-05-25 10:06 amWNW 12.0 24.1----30.11-- 41.2----
2024-05-25 10:00 am NW 14.0 19.0----30.11+0.03- 41.2----
2024-05-25 09:54 amWNW 8.9 21.0----30.11-- 41.2----
2024-05-25 09:48 amWNW 13.0 22.9----30.11-- 41.2----
2024-05-25 09:42 amWNW 11.1 21.0----30.11-- 41.2----
2024-05-25 09:36 amWNW 15.9 25.1----30.11-- 41.2----
2024-05-25 09:30 amWNW 8.0 20.0----30.10-- 41.2----
2024-05-25 09:24 am NW 15.0 22.9----30.10-- 41.2----
2024-05-25 09:18 amWNW 12.0 20.0----30.10-- 41.2----
2024-05-25 09:12 amWNW 15.0 21.0----30.10-- 41.0----
2024-05-25 09:06 am NW 15.0 27.0----30.10-- 41.0----
2024-05-25 09:00 am NW 15.9 22.9----30.10+0.03- 41.0----
2024-05-25 08:54 amWNW 12.0 19.0----30.10-- 41.0----